Regional Weather Roundup
Issued by NWS Upton, NY

Current Version | Previous Version | Text Only | Print | Product List | Glossary Off
Versions: 1 2 3 4 5 6 7 8 9 10 11 12 13 14 15 16 17 18 19 20 21 22 23 24 25 26 27 28 29 30 31 32 33 34 35 36 37 38 39 40 41 42 43 44 45 46 47 48 49 50
000 ASUS41 KOKX 291308 RWROKX REGIONAL WEATHER ROUNDUP NATIONAL WEATHER SERVICE NEW YORK NY 900 AM EDT FRI MAY 29 2015 NOTE: "FAIR" INDICATES FEW OR NO CLOUDS BELOW 12,000 FEET WITH NO SIGNIFICANT WEATHER AND/OR OBSTRUCTIONS TO VISIBILITY. NYZ071-072-176-178-NJZ106-104-291400- NEW YORK CITY METRO AREA CITY SKY/WX TMP DP RH WIND PRES REMARKS CENTRAL PARK SUNNY 71 54 54 VRB3 30.33S LAGUARDIA APRT SUNNY 69 54 58 NE8 30.30S KENNEDY INTL SUNNY 73 54 51 NE9 30.30S NEWARK/LIBERTY SUNNY 72 56 57 N12 30.30S BRNX BOT. GARD N/A 72 55 56 NE7 30.31F TETERBORO SUNNY 71 55 56 NE6 30.30R $$ NYZ177-179-078>081-291400- LONG ISLAND NEW YORK CITY SKY/WX TMP DP RH WIND PRES REMARKS FARMINGDALE SUNNY 71 57 61 NE9 30.30R ISLIP MOSUNNY 71 56 58 NE12 30.28S SHIRLEY SUNNY 71 57 61 VRB5 30.30S WESTHAMPTON SUNNY 71 57 61 NE12 30.30S MONTAUK POINT N/A 65 56 72 VRB6 30.30S $$ NYZ052-065-067-291400- HUDSON VALLEY CITY SKY/WX TMP DP RH WIND PRES REMARKS WHITE PLAINS SUNNY 71 56 58 NE7 30.30S NEWBURGH SUNNY 66 59 77 VRB5 30.34R MONTGOMERY SUNNY 68 58 70 N3 30.33R POUGHKEEPSIE SUNNY 68 56 65 N6 30.31S ALBANY MOSUNNY 68 55 63 CALM 30.33F $$ NJZ001-105-106-008-010-013-015-019>022-104-291400- NEW JERSEY CITY SKY/WX TMP DP RH WIND PRES REMARKS NEWARK/LIBERTY SUNNY 72 56 57 N12 30.30S TETERBORO SUNNY 71 55 56 NE6 30.30R CALDWELL SUNNY 71 55 56 E9 30.31S MORRISTOWN SUNNY 72 59 64 NE8 30.32R SOMERVILLE SUNNY 72 55 55 E7 30.29R SUSSEX SUNNY 68 56 65 E6 30.34R ANDOVER N/A 67 56 67 NE6 30.33R TRENTON SUNNY 72 55 55 NE7 30.30R MILLVILLE MOSUNNY 73 57 57 E10 30.28S ATLANTIC CITY SUNNY 73 57 57 E14 30.28S WRIGHTSTOWN SUNNY 72 58 60 E8 30.28R TOMS RIVER SUNNY N/A N/A N/A E7 30.30R BELMAR SUNNY 72 52 49 NE12 30.30R $$ PAZ047>061-062-071-291400- EASTERN PENNSYLVANIA CITY SKY/WX TMP DP RH WIND PRES REMARKS PHILADELPHIA MOSUNNY 74 56 53 E10 30.30R ALLENTOWN SUNNY 71 55 56 NE6 30.32S SCRANTON SUNNY 68 55 63 NE5 30.32F $$ CTZ002-004>006-009-010-012-RIZ004-006-007-MAZ004-011-015-291400- SOUTHERN NEW ENGLAND IN CT CITY SKY/WX TMP DP RH WIND PRES REMARKS BRADLEY INTL MOSUNNY 69 57 65 N6 30.31R HARTFORD SUNNY 69 56 62 N8 30.31S DANBURY SUNNY 67 55 65 E8 30.33S WTRBRY/OXFORD SUNNY 66 55 68 NE9 30.32F BRIDGEPORT SUNNY 72 58 61 NE7 30.30S MERIDEN SUNNY 71 56 58 NE8 30.30F NEW HAVEN SUNNY 71 56 58 N9 30.29S CHESTER FAIR 68 57 68 N8 30.31S GROTON SUNNY 71 58 63 N6 30.28S WILLIMANTIC SUNNY 71 57 61 NE5 30.30F IN RI CITY SKY/WX TMP DP RH WIND PRES REMARKS PROVIDENCE MOSUNNY 73 57 57 N10 30.30R BLOCK ISLAND SUNNY 66 57 72 NE8 30.30S WESTERLY SUNNY 72 58 61 VRB6 30.29S IN MA CITY SKY/WX TMP DP RH WIND PRES REMARKS BOSTON MOSUNNY 71 58 63 N9 30.30R WORCESTER SUNNY 69 55 60 NE7 30.32S WESTFIELD SUNNY 71 56 58 NE8 30.32R PROVINCETOWN SUNNY 63 54 72 NW6 30.30R NANTUCKET SUNNY 71 58 63 N6 30.28R $$ ANZ330-335-338-340-345-350-353-355-291400- COASTAL MARINE OBSERVATIONS STATION/POSITION TIME SKY/WX TEMP WIND PRES VSBY WAVE AIR SEA DIR/SP/G HT/PER (UTC) (F) (DEG/KT/KT) (MB) (MI) (FT/S) NY HARB ENTRANCE 1250 59 58 360/ 6/ 6 1025.5 2/ 8 4S FIRE IS 1203 57 N/A 2/ 9 20S FIRE ISLAND 1250 60 57 30/ 8/ 10 1025.3 3/ 9 GREAT SOUTH BAY 1215 67 67 40/ 10/ 14 N/A 23SW MTP 1250 56 54 10/ 6/ 8 1025.4 3/ 8 HUDSON CANYON NOT AVBL KINGS POINT 1200 63 54 20/ 5/ 7 1025.4 CENTRAL LI SOUND 1200 60 58 350/ 4/ 4 N/A EASTERN LI SOUND 1200 62 360/ 4/ 6 N/A ROBBINS REEF 1200 67 40/ 9/ 10 1024.8 $$ >>>>>>>>>>>>>>>>>>>>>>>>>>>> KEY <<<<<<<<<<<<<<<<<<<<<<<<<<< > < > SKY/WX - SKY CONDITION/PRESENT WEATHER < > TMP - TEMPERATURE IN FAHRENHEIT < > DP - DEWPOINT IN FAHRENHEIT < > RH - RELATIVE HUMIDITY IN PERCENT < > WIND - DIRECTION AND SPEED IN MPH < > PRES - MEAN SEA LEVEL PRESSURE IN INCHES OF HG < > WCI - WIND CHILL INDEX < > VSB - VISIBILITY IN MILES < > HX - HEAT INDEX < > TC - TEMPERATURE IN CELSIUS < > VRB - VARIABLE WIND DIRECTION < > < >>>>>>>>>>>>>>>>>>>>>>>>>>>> KEY <<<<<<<<<<<<<<<<<<<<<<<<<<<

USA.gov is the U.S. government's official web portal to all federal, state and local government web resources and services.